[[{"header":{"parameterUnit":"m.s-1","parameterCategory":1,"la1":30.2991,"la2":30.254,"lo1":-89.0895,"lo2":-89.0444,"dy":0.0017,"dx":0.0017,"nx":28,"ny":28,"refTime":"2024-03-21T09:00:00:Z","depth":0,"parameterNumber":2,"parameterNumberName":"U-component_of_WINDS"},"data":[0,0,0,0,0,0,0,0,0,0,0,0,0,0,0,0,0,0,0,0,0,0,0,0,0,0,0,0,0,0,0,0,0,0,0,0,0,0,0,0,0,0,0,0,0,0,0,0,0,0,0,0,0,0,0,0,0,0,-3.9324,-3.9324,0,-3.9357,-3.9357,-3.9358,-3.9278,-3.9276,-3.9273,-3.9271,-3.9303,-3.9306,-3.9309,0,0,0,0,0,0,0,0,0,0,0,0,0,-3.9191,-3.9194,-3.9324,-3.9324,-3.9325,-3.9357,-3.9357,-3.9358,-3.9279,-3.9275,-3.9272,-3.927,-3.9302,-3.9306,-3.931,0,0,0,0,0,0,0,0,0,0,0,0,0,-3.9239,-3.9195,-3.9324,-3.9289,-3.9286,-3.9357,-3.9357,-3.9358,-3.9279,-3.9275,-3.9272,-3.9268,-3.9301,-3.9306,-3.931,-3.9416,0,0,-3.9325,-3.9327,0,0,0,0,0,0,0,0,-3.9236,-3.9244,-3.9294,-3.9292,-3.9289,-3.931,-3.9322,-3.9377,-3.928,-3.9282,-3.9271,-3.9266,-3.9308,-3.9312,-3.9327,-3.9417,-3.9419,-3.9325,-3.9328,-3.933,-3.9332,0,0,0,0,0,0,0,-3.9233,-3.9242,-3.9337,-3.9295,-3.9292,-3.9272,-3.9274,-3.9333,-3.9316,-3.9281,-3.9276,-3.9281,-3.9306,-3.9322,-3.9327,-3.9419,-3.9325,-3.933,-3.9333,-3.9334,-3.9598,-3.9601,0,0,0,0,0,0,-3.9235,-3.924,-3.9336,-3.9338,-3.9253,-3.9277,-3.928,-3.9307,-3.9315,-3.9313,-3.9284,-3.9277,-3.9316,-3.9321,-3.9328,-3.9451,-3.933,-3.9335,-3.9338,-3.9593,-3.9598,-3.9603,0,0,0,0,0,0,-3.9232,-3.9244,-3.9335,-3.9287,-3.9297,-3.9283,-3.9314,-3.9309,-3.9325,-3.9317,-3.9313,-3.9304,-3.9313,-3.9321,-3.9394,-3.9451,-3.9337,-3.9341,-3.9589,-3.9595,-3.9601,-3.9699,0,0,0,0,0,0,-3.9229,-3.9243,-3.9283,-3.9289,-3.93,-3.9401,-3.9318,-3.9313,-3.9334,-3.9325,-3.9334,-3.9332,-3.9311,-3.9388,-3.9399,-3.9455,-3.9345,-3.9583,-3.9591,-3.9599,-3.969,-3.9708,-3.9722,0,0,0,0,0,-3.9224,-3.9309,-3.9286,-3.9298,-3.935,-3.9405,-3.9411,-3.9385,-3.9339,-3.9379,-3.9374,-3.9332,-3.9444,-3.9396,-3.9408,-3.9467,-3.958,-3.9589,-3.9598,-3.9683,-3.9704,-3.9722,0,0,0,0,0,0,-3.931,-3.9309,-3.9283,-3.9373,-3.939,-3.9391,-3.944,-3.9408,-3.9437,-3.9428,-3.9394,-3.9397,-3.9477,-3.9479,-3.9426,-3.9569,-3.9504,-3.9516,-3.9564,-3.9584,-3.96,-3.9596,-3.9349,0,0,0,0,0,-3.934,-3.9385,-3.9381,-3.9461,-3.9471,-3.9455,-3.9477,-3.9456,-3.9472,-3.9478,-3.9478,-3.9494,-3.9533,-3.9559,-3.9594,-3.9691,-3.9692,-3.9738,-3.9754,-3.9767,-3.9777,-3.9828,-3.9848,-3.9633,-3.9633,-3.9633,0,0,-3.9401,-3.9406,-3.9436,-3.9478,-3.9489,-3.9535,-3.9461,-3.9513,-3.9547,-3.9486,-3.9555,-3.9556,-3.9572,-3.9658,-3.9695,-3.9662,-3.9837,-3.9778,-3.9789,-3.9792,-3.984,-3.986,-3.9878,-3.9639,-3.9638,-3.9637,0,0,-3.9536,-3.9545,-3.9612,-3.9624,-3.9641,-3.963,-3.9646,-3.9653,-3.9651,-3.9721,-3.9675,-3.9716,-3.9783,-3.9796,-3.9811,-3.9953,-3.9916,-3.9966,-4.0048,-4.0098,-4.0115,-4.013,-4.0179,-4.0198,-3.9977,-3.9977,-3.9977,0,-3.9609,-3.9678,-3.965,-3.9706,-3.9726,-3.9673,-3.974,-3.9754,-3.9781,-3.9796,-3.9759,-3.9842,-3.985,-3.9937,-3.9972,-3.9987,-4.0004,-3.9963,-4.0115,-4.013,-4.0143,-4.019,-4.0209,-3.9983,-3.9982,-3.9981,-3.9981,0,-3.9767,-3.9816,-3.9868,-3.9896,-3.9922,-3.9983,-3.9965,-3.9994,-3.9971,-3.9964,-4.0035,-4.0043,-4.0078,-4.0098,-4.0076,-4.0183,-4.0162,-4.0121,-4.0054,-4.017,-4.0213,-4.0231,-3.9991,-3.9989,-3.9987,-3.9986,0,0,-3.9955,-3.9968,-3.9988,-4.0,-4.0015,-4.0052,-4.0112,-4.0147,-4.0172,-4.0194,-4.0242,-4.0301,-4.0263,-4.0281,-4.026,-4.0305,-4.0416,-4.0258,-4.0258,-4.0286,-4.0533,-4.0563,-4.0584,-4.0392,-4.0395,-4.0398,-4.0531,0,-4.0087,-4.0189,-4.0166,-4.0266,-4.031,-4.0262,-4.0313,-4.0329,-4.0324,-4.0361,-4.0356,-4.0398,-4.0345,-4.0356,-4.0398,-4.0393,-4.0465,-4.0384,-4.0435,-4.0438,-4.0431,-4.0606,-4.0638,-4.0763,-4.0548,-4.0551,-4.0553,0,-4.0254,-4.0282,-4.0387,-4.0396,-4.0413,-4.046,-4.0491,-4.0527,-4.0543,-4.0537,-4.0558,-4.0529,-4.0587,-4.0522,-4.0601,-4.0547,-4.0567,-4.0568,-4.0572,-4.0574,-4.0501,-4.0612,-4.0802,-4.0821,-4.058,-4.0578,-4.0576,0,-4.0379,-4.0443,-4.0514,-4.0526,-4.0538,-4.0572,-4.0579,-4.0592,-4.0615,-4.0642,-4.0656,-4.069,-4.0708,-4.0735,-4.0715,-4.067,-4.0798,-4.0731,-4.0793,-4.0794,-4.082,-4.0819,-4.1015,-4.0837,-4.0837,-4.0837,-4.0836,0,-4.0527,-4.0593,-4.057,-4.0613,-4.0685,-4.0659,-4.0731,-4.0732,-4.0744,-4.0787,-4.0748,-4.0788,-4.0762,-4.08,-4.0786,-4.0853,-4.0862,-4.0858,-4.0853,-4.086,-4.0861,-4.0871,-4.0862,-4.0842,-4.084,-4.0839,-4.0839,0,-4.0677,-4.0665,-4.0739,-4.0745,-4.0748,-4.0801,-4.0806,-4.0846,-4.084,-4.0894,-4.0905,-4.0895,-4.0938,-4.0922,-4.0969,-4.0959,-4.1045,-4.1029,-4.1039,-4.1035,-4.1097,-4.1091,-4.1306,-4.1332,-4.1139,-4.1141,-4.1143,0,-4.0772,-4.0821,-4.0834,-4.0859,-4.0869,-4.0912,-4.0935,-4.0912,-4.0938,-4.0961,-4.0998,-4.1038,-4.1069,-4.1141,-4.1137,-4.1172,-4.1156,-4.1229,-4.1161,-4.1167,-4.1155,-4.1152,-4.1156,-4.1242,-4.1244,-4.1246,-4.1247,0,-4.0941,-4.0933,-4.0968,-4.1002,-4.1031,-4.1057,-4.1078,-4.1102,-4.108,-4.1111,-4.1155,-4.118,-4.1227,-4.1267,-4.1299,-4.1305,-4.1273,-4.1269,-4.1285,-4.1292,-4.1295,-4.1293,-4.1074,-4.1264,-4.1262,-4.1261,-4.126,-4.1259,-4.1065,-4.1107,-4.1122,-4.1163,-4.1177,-4.1199,-4.1237,-4.1235,-4.1272,-4.1309,-4.1294,-4.1345,-4.136,-4.14,-4.1411,-4.145,-4.1421,-4.1445,-4.1451,-4.1456,-4.1464,-4.1291,-4.1456,-4.1455,-4.1455,-4.1455,-4.1454,0,-4.1231,-4.1238,-4.1276,-4.1309,-4.1341,-4.1309,-4.1332,-4.1361,-4.1406,-4.1424,-4.1455,-4.1506,-4.1545,-4.1545,-4.1582,-4.1613,-4.1599,-4.1623,-4.1619,-4.1621,-4.1488,-4.147,-4.1634,-4.1634,-4.1634,-4.1634,-4.1634,-4.1634,-4.132,-4.1389,-4.1383,-4.1458,-4.1465,-4.1515,-4.153,-4.155,-4.1564,-4.1623,-4.1655,-4.1656,-4.1666,-4.1703,-4.1737,-4.1736,-4.1751,-4.1781,-4.1774,-4.1649,-4.1631,-4.1614,-4.1596,-4.1784,-4.1785,-4.1904,-4.1905,-4.1906]},{"header":{"parameterUnit":"m.s-1","parameterCategory":1,"la1":30.2991,"la2":30.254,"lo1":-89.0895,"lo2":-89.0444,"dy":0.0017,"dx":0.0017,"nx":28,"ny":28,"refTime":"2024-03-21T09:00:00:Z","depth":0,"parameterNumber":3,"parameterNumberName":"V-component_of_WINDS"},"data":[0,0,0,0,0,0,0,0,0,0,0,0,0,0,0,0,0,0,0,0,0,0,0,0,0,0,0,0,0,0,0,0,0,0,0,0,0,0,0,0,0,0,0,0,0,0,0,0,0,0,0,0,0,0,0,0,0,0,1.6017,1.6017,0,1.6018,1.6018,1.6018,1.6029,1.6029,1.6029,1.6029,1.6027,1.6027,1.6027,0,0,0,0,0,0,0,0,0,0,0,0,0,1.6023,1.6023,1.6017,1.6017,1.6017,1.6018,1.6018,1.6018,1.6029,1.6029,1.6029,1.603,1.6027,1.6027,1.6027,0,0,0,0,0,0,0,0,0,0,0,0,0,1.6022,1.6023,1.6017,1.6023,1.6023,1.6018,1.6018,1.6018,1.6029,1.6029,1.6029,1.603,1.6027,1.6027,1.6026,1.6015,0,0,1.6025,1.6025,0,0,0,0,0,0,0,0,1.6022,1.6021,1.6022,1.6022,1.6023,1.6024,1.6019,1.6017,1.6028,1.6026,1.6029,1.603,1.6025,1.6025,1.6024,1.6015,1.6015,1.6025,1.6025,1.6024,1.6024,0,0,0,0,0,0,0,1.6022,1.6021,1.6017,1.6022,1.6022,1.6024,1.6025,1.6019,1.6023,1.6027,1.6027,1.6027,1.6026,1.6025,1.6024,1.6015,1.6025,1.6025,1.6024,1.6024,1.5997,1.5996,0,0,0,0,0,0,1.6021,1.6021,1.6017,1.6017,1.6023,1.6024,1.6024,1.6023,1.6024,1.6024,1.6027,1.6028,1.6025,1.6025,1.6024,1.6011,1.6024,1.6024,1.6024,1.5997,1.5997,1.5996,0,0,0,0,0,0,1.6021,1.6021,1.6017,1.602,1.6019,1.6023,1.6022,1.6023,1.6022,1.6024,1.6025,1.6025,1.6026,1.6025,1.6018,1.6011,1.6024,1.6023,1.5998,1.5997,1.5997,1.5985,0,0,0,0,0,0,1.6022,1.6021,1.6017,1.6019,1.6019,1.6011,1.6021,1.6022,1.6021,1.6022,1.6022,1.6023,1.6026,1.6018,1.6017,1.6011,1.6023,1.5998,1.5997,1.5997,1.5986,1.5984,1.5983,0,0,0,0,0,1.6022,1.6013,1.6017,1.6016,1.6015,1.6011,1.6011,1.6015,1.6021,1.6016,1.6018,1.6023,1.6012,1.6017,1.6016,1.601,1.5999,1.5998,1.5997,1.5987,1.5985,1.5983,0,0,0,0,0,0,1.6008,1.6013,1.6018,1.6009,1.601,1.6013,1.6007,1.6012,1.601,1.6011,1.6016,1.6016,1.6008,1.6008,1.6014,1.5999,1.6006,1.6005,1.5999,1.5997,1.5996,1.5996,1.6023,0,0,0,0,0,1.6005,1.6002,1.6006,1.5999,1.5999,1.6003,1.6002,1.6005,1.6005,1.6005,1.6006,1.6006,1.6002,1.6,1.5997,1.5987,1.5987,1.5982,1.598,1.5978,1.5977,1.5972,1.597,1.5993,1.5993,1.5993,0,0,1.5996,1.5999,1.5997,1.5996,1.5997,1.5993,1.6003,1.5999,1.5996,1.6004,1.5998,1.5999,1.5998,1.599,1.5986,1.5989,1.5971,1.5977,1.5976,1.5975,1.5971,1.5969,1.5967,1.5992,1.5993,1.5993,0,0,1.598,1.5981,1.5976,1.5977,1.5978,1.5981,1.598,1.5983,1.5984,1.5978,1.5984,1.5981,1.5975,1.5974,1.5973,1.5958,1.5962,1.5957,1.5948,1.5943,1.5941,1.5939,1.5934,1.5932,1.5956,1.5956,1.5956,0,1.5969,1.5965,1.5972,1.5968,1.5967,1.5976,1.597,1.597,1.597,1.5969,1.5974,1.5967,1.5967,1.5959,1.5956,1.5954,1.5953,1.5957,1.5941,1.5939,1.5938,1.5933,1.5931,1.5955,1.5955,1.5955,1.5955,0,1.5952,1.5949,1.5944,1.5946,1.5945,1.594,1.5945,1.5943,1.5947,1.595,1.5944,1.5945,1.5942,1.5941,1.5944,1.5933,1.5935,1.594,1.5947,1.5935,1.593,1.5929,1.5954,1.5954,1.5955,1.5955,0,0,1.5926,1.5932,1.593,1.5931,1.5934,1.5932,1.5927,1.5926,1.5925,1.5924,1.5921,1.5916,1.5921,1.592,1.5923,1.5919,1.5908,1.5925,1.5925,1.5922,1.5896,1.5892,1.589,1.5911,1.5911,1.591,1.5896,0,1.591,1.5904,1.591,1.5902,1.59,1.5908,1.5904,1.5905,1.5908,1.5906,1.5908,1.5905,1.5912,1.5912,1.5908,1.591,1.5903,1.5911,1.5907,1.5907,1.5907,1.5888,1.5883,1.587,1.5894,1.5894,1.5894,0,1.5891,1.5892,1.5884,1.5888,1.5887,1.5884,1.5884,1.5882,1.5883,1.5885,1.5885,1.589,1.5885,1.5893,1.5887,1.5892,1.5891,1.5892,1.5891,1.5891,1.5899,1.5886,1.5866,1.5864,1.5891,1.5891,1.5892,0,1.5873,1.5872,1.5867,1.5868,1.5873,1.587,1.5872,1.5874,1.5873,1.5873,1.5872,1.5871,1.587,1.5869,1.5874,1.5879,1.5867,1.5875,1.5868,1.5868,1.5865,1.5865,1.5843,1.5864,1.5864,1.5864,1.5864,0,1.5855,1.585,1.5859,1.5856,1.5851,1.5858,1.5852,1.5855,1.5857,1.5854,1.5861,1.5858,1.5865,1.5862,1.5866,1.586,1.5859,1.5861,1.5862,1.586,1.586,1.5859,1.586,1.5864,1.5864,1.5864,1.5864,0,1.5834,1.584,1.5836,1.5841,1.5843,1.5838,1.5843,1.584,1.5844,1.584,1.584,1.5845,1.5843,1.5847,1.5845,1.5848,1.584,1.5842,1.584,1.584,1.5834,1.5834,1.5811,1.5808,1.5831,1.583,1.583,0,1.5822,1.5818,1.5824,1.5823,1.5825,1.5824,1.5823,1.5831,1.583,1.5832,1.5829,1.5828,1.5827,1.5823,1.5826,1.5825,1.5827,1.5819,1.5827,1.5826,1.5827,1.5827,1.5827,1.5817,1.5817,1.5817,1.5817,0,1.58,1.5803,1.5803,1.5804,1.5804,1.5805,1.5807,1.5805,1.5813,1.5812,1.5811,1.581,1.5809,1.5808,1.5807,1.5808,1.5814,1.5814,1.5813,1.5811,1.581,1.581,1.5835,1.5815,1.5815,1.5815,1.5815,1.5815,1.5783,1.578,1.5784,1.5784,1.5786,1.5788,1.5786,1.579,1.5789,1.5789,1.5793,1.5791,1.5793,1.5794,1.5794,1.5793,1.5796,1.5794,1.5793,1.5792,1.5791,1.581,1.5792,1.5792,1.5793,1.5793,1.5793,0,1.5761,1.5765,1.5764,1.5767,1.5767,1.5773,1.5775,1.5774,1.5773,1.5775,1.5775,1.5773,1.5772,1.5776,1.5775,1.5773,1.5775,1.5772,1.5773,1.5773,1.5788,1.579,1.5771,1.5771,1.5771,1.5771,1.5771,1.5771,1.575,1.5746,1.5751,1.5748,1.5751,1.575,1.5751,1.5752,1.5754,1.5752,1.5752,1.5755,1.5758,1.5758,1.5757,1.5758,1.5757,1.5754,1.5755,1.5769,1.5772,1.5774,1.5775,1.5753,1.5753,1.574,1.574,1.574]}]]